Year,Month,Day,Hour,Minute,Value (Times are PST for temperature in C)
2016,07,15,00,00,13.10
2016,07,15,00,01,13.10
2016,07,15,00,02,13.10
2016,07,15,00,03,13.10
2016,07,15,00,04,13.10
2016,07,15,00,05,13.10
2016,07,15,00,06,13.10
2016,07,15,00,07,13.10
2016,07,15,00,08,13.10
2016,07,15,00,09,13.00
2016,07,15,00,10,13.00
2016,07,15,00,11,13.00
2016,07,15,00,12,12.90
2016,07,15,00,13,12.90
2016,07,15,00,14,12.90
2016,07,15,00,15,13.00
2016,07,15,00,16,13.00
2016,07,15,00,17,13.10
2016,07,15,00,18,13.10
2016,07,15,00,19,13.10
2016,07,15,00,20,13.10
2016,07,15,00,21,13.10
2016,07,15,00,22,13.10
2016,07,15,00,23,13.10
2016,07,15,00,24,13.00
2016,07,15,00,25,13.00
2016,07,15,00,26,13.00
2016,07,15,00,27,13.00
2016,07,15,00,28,13.10
2016,07,15,00,29,13.10
2016,07,15,00,30,13.10
2016,07,15,00,31,13.10
2016,07,15,00,32,13.10
2016,07,15,00,33,13.10
2016,07,15,00,34,13.20
2016,07,15,00,35,13.20
2016,07,15,00,36,13.20
2016,07,15,00,37,13.20
2016,07,15,00,38,13.20
2016,07,15,00,39,13.20
2016,07,15,00,40,13.20
2016,07,15,00,41,13.20
2016,07,15,00,42,13.20
2016,07,15,00,43,13.20
2016,07,15,00,44,13.20
2016,07,15,00,45,13.20
2016,07,15,00,46,13.20
2016,07,15,00,47,13.20
2016,07,15,00,48,13.20
2016,07,15,00,49,13.20
2016,07,15,00,50,13.20
2016,07,15,00,51,13.20
2016,07,15,00,52,13.20
2016,07,15,00,53,13.20
2016,07,15,00,54,13.20
2016,07,15,00,55,13.20
2016,07,15,00,56,13.20
2016,07,15,00,57,13.20
2016,07,15,00,58,13.20
2016,07,15,00,59,13.20
2016,07,15,01,00,13.20
2016,07,15,01,01,13.20
2016,07,15,01,02,13.20
2016,07,15,01,03,13.20
2016,07,15,01,04,13.20
2016,07,15,01,05,13.20
2016,07,15,01,06,13.20
2016,07,15,01,07,13.20
2016,07,15,01,08,13.20
2016,07,15,01,09,13.20
2016,07,15,01,10,13.20
2016,07,15,01,11,13.20
2016,07,15,01,12,13.20
2016,07,15,01,13,13.20
2016,07,15,01,14,13.20
2016,07,15,01,15,13.10
2016,07,15,01,16,13.10
2016,07,15,01,17,13.10
2016,07,15,01,18,13.10
2016,07,15,01,19,13.10
2016,07,15,01,20,13.10
2016,07,15,01,21,13.10
2016,07,15,01,22,13.10
2016,07,15,01,23,13.10
2016,07,15,01,24,13.10
2016,07,15,01,25,13.10
2016,07,15,01,26,13.10
2016,07,15,01,27,13.00
2016,07,15,01,28,13.00
2016,07,15,01,29,13.00
2016,07,15,01,30,13.00
2016,07,15,01,31,13.00
2016,07,15,01,32,13.00
2016,07,15,01,33,13.00
2016,07,15,01,34,13.00
2016,07,15,01,35,12.90
2016,07,15,01,36,12.90
2016,07,15,01,37,12.90
2016,07,15,01,38,12.90
2016,07,15,01,39,12.90
2016,07,15,01,40,12.90
2016,07,15,01,41,12.90
2016,07,15,01,42,12.90
2016,07,15,01,43,12.90
2016,07,15,01,44,12.90
2016,07,15,01,45,12.90
2016,07,15,01,46,12.90
2016,07,15,01,47,12.90
2016,07,15,01,48,12.90
2016,07,15,01,49,12.90
2016,07,15,01,50,12.90
2016,07,15,01,51,12.90
2016,07,15,01,52,12.90
2016,07,15,01,53,12.80
2016,07,15,01,54,12.80
2016,07,15,01,55,12.80
2016,07,15,01,56,12.80
2016,07,15,01,57,12.80
2016,07,15,01,58,12.80
2016,07,15,01,59,12.80
2016,07,15,02,00,12.80
2016,07,15,02,01,12.80
2016,07,15,02,02,12.80
2016,07,15,02,03,12.80
2016,07,15,02,04,12.80
2016,07,15,02,05,12.80
2016,07,15,02,06,12.80
2016,07,15,02,07,12.80
2016,07,15,02,08,12.80
2016,07,15,02,09,12.80
2016,07,15,02,10,12.80
2016,07,15,02,11,12.70
2016,07,15,02,12,12.70
2016,07,15,02,13,12.70
2016,07,15,02,14,12.60
2016,07,15,02,15,12.60
2016,07,15,02,16,12.60
2016,07,15,02,17,12.60
2016,07,15,02,18,12.50
2016,07,15,02,19,12.50
2016,07,15,02,20,12.40
2016,07,15,02,21,12.40
2016,07,15,02,22,12.40
2016,07,15,02,23,12.30
2016,07,15,02,24,12.30
2016,07,15,02,25,12.30
2016,07,15,02,26,12.20
2016,07,15,02,27,12.20
2016,07,15,02,28,12.20
2016,07,15,02,29,12.20
2016,07,15,02,30,12.10
2016,07,15,02,31,12.10
2016,07,15,02,32,12.10
2016,07,15,02,33,12.10
2016,07,15,02,34,12.00
2016,07,15,02,35,12.00
2016,07,15,02,36,12.00
2016,07,15,02,37,11.90
2016,07,15,02,38,11.90
2016,07,15,02,39,11.90
2016,07,15,02,40,11.90
2016,07,15,02,41,11.90
2016,07,15,02,42,11.80
2016,07,15,02,43,11.80
2016,07,15,02,44,11.80
2016,07,15,02,45,11.80
2016,07,15,02,46,11.80
2016,07,15,02,47,11.80
2016,07,15,02,48,11.80
2016,07,15,02,49,11.80
2016,07,15,02,50,11.80
2016,07,15,02,51,11.80
2016,07,15,02,52,11.80
2016,07,15,02,53,11.80
2016,07,15,02,54,11.80
2016,07,15,02,55,11.80
2016,07,15,02,56,11.80
2016,07,15,02,57,11.80
2016,07,15,02,58,11.80
2016,07,15,02,59,11.70
2016,07,15,03,00,11.70
2016,07,15,03,01,11.80
2016,07,15,03,02,11.70
2016,07,15,03,03,11.70
2016,07,15,03,04,11.70
2016,07,15,03,05,11.70
2016,07,15,03,06,11.70
2016,07,15,03,07,11.70
2016,07,15,03,08,11.70
2016,07,15,03,09,11.70
2016,07,15,03,10,11.70
2016,07,15,03,11,11.70
2016,07,15,03,12,11.70
2016,07,15,03,13,11.70
2016,07,15,03,14,11.70
2016,07,15,03,15,11.70
2016,07,15,03,16,11.70
2016,07,15,03,17,11.70
2016,07,15,03,18,11.70
2016,07,15,03,19,11.70
2016,07,15,03,20,11.70
2016,07,15,03,21,11.70
2016,07,15,03,22,11.70
2016,07,15,03,23,11.60
2016,07,15,03,24,11.60
2016,07,15,03,25,11.60
2016,07,15,03,26,11.60
2016,07,15,03,27,11.60
2016,07,15,03,28,11.60
2016,07,15,03,29,11.60
2016,07,15,03,30,11.60
2016,07,15,03,31,11.60
2016,07,15,03,32,11.50
2016,07,15,03,33,11.50
2016,07,15,03,34,11.50
2016,07,15,03,35,11.50
2016,07,15,03,36,11.40
2016,07,15,03,37,11.40
2016,07,15,03,38,11.40
2016,07,15,03,39,11.40
2016,07,15,03,40,11.40
2016,07,15,03,41,11.30
2016,07,15,03,42,11.30
2016,07,15,03,43,11.40
2016,07,15,03,44,11.40
2016,07,15,03,45,11.40
2016,07,15,03,46,11.40
2016,07,15,03,47,11.40
2016,07,15,03,48,11.40
2016,07,15,03,49,11.30
2016,07,15,03,50,11.30
2016,07,15,03,51,11.30
2016,07,15,03,52,11.30
2016,07,15,03,53,11.30
2016,07,15,03,54,11.30
2016,07,15,03,55,11.30
2016,07,15,03,56,11.30
2016,07,15,03,57,11.30
2016,07,15,03,58,11.30
2016,07,15,03,59,11.30
2016,07,15,04,00,11.30
2016,07,15,04,01,11.30
2016,07,15,04,02,11.30
2016,07,15,04,03,11.30
2016,07,15,04,04,11.30
2016,07,15,04,05,11.30
2016,07,15,04,06,11.20
2016,07,15,04,07,11.20
2016,07,15,04,08,11.20
2016,07,15,04,09,11.20
2016,07,15,04,10,11.20
2016,07,15,04,11,11.20
2016,07,15,04,12,11.20
2016,07,15,04,13,11.10
2016,07,15,04,14,11.10
2016,07,15,04,15,11.10
2016,07,15,04,16,11.10
2016,07,15,04,17,11.10
2016,07,15,04,18,11.10
2016,07,15,04,19,11.10
2016,07,15,04,20,11.10
2016,07,15,04,21,11.10
2016,07,15,04,22,11.10
2016,07,15,04,23,11.10
2016,07,15,04,24,11.00
2016,07,15,04,25,11.00
2016,07,15,04,26,11.00
2016,07,15,04,27,11.00
2016,07,15,04,28,11.00
2016,07,15,04,29,11.00
2016,07,15,04,30,11.00
2016,07,15,04,31,11.00
2016,07,15,04,32,11.00
2016,07,15,04,33,10.90
2016,07,15,04,34,10.90
2016,07,15,04,35,10.90
2016,07,15,04,36,10.90
2016,07,15,04,37,10.90
2016,07,15,04,38,10.90
2016,07,15,04,39,10.90
2016,07,15,04,40,10.80
2016,07,15,04,41,10.80
2016,07,15,04,42,10.80
2016,07,15,04,43,10.80
2016,07,15,04,44,10.80
2016,07,15,04,45,10.80
2016,07,15,04,46,10.70
2016,07,15,04,47,10.70
2016,07,15,04,48,10.70
2016,07,15,04,49,10.70
2016,07,15,04,50,10.70
2016,07,15,04,51,10.70
2016,07,15,04,52,10.70
2016,07,15,04,53,10.70
2016,07,15,04,54,10.70
2016,07,15,04,55,10.70
2016,07,15,04,56,10.70
2016,07,15,04,57,10.70
2016,07,15,04,58,10.70
2016,07,15,04,59,10.80
2016,07,15,05,00,10.80
2016,07,15,05,01,10.80
2016,07,15,05,02,10.80
2016,07,15,05,03,10.80
2016,07,15,05,04,10.80
2016,07,15,05,05,10.80
2016,07,15,05,06,10.70
2016,07,15,05,07,10.70
2016,07,15,05,08,10.70
2016,07,15,05,09,10.70
2016,07,15,05,10,10.70
2016,07,15,05,11,10.70
2016,07,15,05,12,10.70
2016,07,15,05,13,10.60
2016,07,15,05,14,10.60
2016,07,15,05,15,10.60
2016,07,15,05,16,10.60
2016,07,15,05,17,10.60
2016,07,15,05,18,10.60
2016,07,15,05,19,10.60
2016,07,15,05,20,10.60
2016,07,15,05,21,10.60
2016,07,15,05,22,10.60
2016,07,15,05,23,10.60
2016,07,15,05,24,10.60
2016,07,15,05,25,10.60
2016,07,15,05,26,10.60
2016,07,15,05,27,10.60
2016,07,15,05,28,10.50
2016,07,15,05,29,10.50
2016,07,15,05,30,10.50
2016,07,15,05,31,10.50
2016,07,15,05,32,10.50
2016,07,15,05,33,10.50
2016,07,15,05,34,10.50
2016,07,15,05,35,10.50
2016,07,15,05,36,10.40
2016,07,15,05,37,10.40
2016,07,15,05,38,10.40
2016,07,15,05,39,10.40
2016,07,15,05,40,10.40
2016,07,15,05,41,10.40
2016,07,15,05,42,10.40
2016,07,15,05,43,10.30
2016,07,15,05,44,10.30
2016,07,15,05,45,10.30
2016,07,15,05,46,10.30
2016,07,15,05,47,10.30
2016,07,15,05,48,10.30
2016,07,15,05,49,10.30
2016,07,15,05,50,10.30
2016,07,15,05,51,10.30
2016,07,15,05,52,10.30
2016,07,15,05,53,10.30
2016,07,15,05,54,10.30
2016,07,15,05,55,10.30
2016,07,15,05,56,10.30
2016,07,15,05,57,10.30
2016,07,15,05,58,10.40
2016,07,15,05,59,10.40
2016,07,15,06,00,10.40
2016,07,15,06,01,10.30
2016,07,15,06,02,10.30
2016,07,15,06,03,10.30
2016,07,15,06,04,10.30
2016,07,15,06,05,10.30
2016,07,15,06,06,10.30
2016,07,15,06,07,10.30
2016,07,15,06,08,10.30
2016,07,15,06,09,10.30
2016,07,15,06,10,10.30
2016,07,15,06,11,10.30
2016,07,15,06,12,10.30
2016,07,15,06,13,10.30
2016,07,15,06,14,10.30
2016,07,15,06,15,10.30
2016,07,15,06,16,10.30
2016,07,15,06,17,10.30
2016,07,15,06,18,10.30
2016,07,15,06,19,10.30
2016,07,15,06,20,10.30
2016,07,15,06,21,10.30
2016,07,15,06,22,10.30
2016,07,15,06,23,10.30
2016,07,15,06,24,10.30
2016,07,15,06,25,10.30
2016,07,15,06,26,10.30
2016,07,15,06,27,10.30
2016,07,15,06,28,10.30
2016,07,15,06,29,10.30
2016,07,15,06,30,10.30
2016,07,15,06,31,10.30
2016,07,15,06,32,10.30
2016,07,15,06,33,10.40
2016,07,15,06,34,10.40
2016,07,15,06,35,10.40
2016,07,15,06,36,10.40
2016,07,15,06,37,10.40
2016,07,15,06,38,10.40
2016,07,15,06,39,10.40
2016,07,15,06,40,10.40
2016,07,15,06,41,10.50
2016,07,15,06,42,10.50
2016,07,15,06,43,10.50
2016,07,15,06,44,10.50
2016,07,15,06,45,10.50
2016,07,15,06,46,10.50
2016,07,15,06,47,10.60
2016,07,15,06,48,10.60
2016,07,15,06,49,10.60
2016,07,15,06,50,10.60
2016,07,15,06,51,10.60
2016,07,15,06,52,10.60
2016,07,15,06,53,10.60
2016,07,15,06,54,10.70
2016,07,15,06,55,10.70
2016,07,15,06,56,10.70
2016,07,15,06,57,10.70
2016,07,15,06,58,10.70
2016,07,15,06,59,10.80
2016,07,15,07,00,10.80
2016,07,15,07,01,10.90
2016,07,15,07,02,10.90
2016,07,15,07,03,11.00
2016,07,15,07,04,11.00
2016,07,15,07,05,11.10
2016,07,15,07,06,11.10
2016,07,15,07,07,11.10
2016,07,15,07,08,11.20
2016,07,15,07,09,11.20
2016,07,15,07,10,11.20
2016,07,15,07,11,11.30
2016,07,15,07,12,11.30
2016,07,15,07,13,11.40
2016,07,15,07,14,11.40
2016,07,15,07,15,11.50
2016,07,15,07,16,11.50
2016,07,15,07,17,11.60
2016,07,15,07,18,11.60
2016,07,15,07,19,11.60
2016,07,15,07,20,11.70
2016,07,15,07,21,11.70
2016,07,15,07,22,11.80
2016,07,15,07,23,11.80
2016,07,15,07,24,11.80
2016,07,15,07,25,11.90
2016,07,15,07,26,11.90
2016,07,15,07,27,12.00
2016,07,15,07,28,12.00
2016,07,15,07,29,12.10
2016,07,15,07,30,12.20
2016,07,15,07,31,12.20
2016,07,15,07,32,12.20
2016,07,15,07,33,12.30
2016,07,15,07,34,12.30
2016,07,15,07,35,12.30
2016,07,15,07,36,12.40
2016,07,15,07,37,12.40
2016,07,15,07,38,12.50
2016,07,15,07,39,12.60
2016,07,15,07,40,12.60
2016,07,15,07,41,12.60
2016,07,15,07,42,12.70
2016,07,15,07,43,12.70
2016,07,15,07,44,12.80
2016,07,15,07,45,12.80
2016,07,15,07,46,12.90
2016,07,15,07,47,12.90
2016,07,15,07,48,13.00
2016,07,15,07,49,13.00
2016,07,15,07,50,13.10
2016,07,15,07,51,13.10
2016,07,15,07,52,13.20
2016,07,15,07,53,13.20
2016,07,15,07,54,13.30
2016,07,15,07,55,13.30
2016,07,15,07,56,13.40
2016,07,15,07,57,13.40
2016,07,15,07,58,13.50
2016,07,15,07,59,13.50
2016,07,15,08,00,13.60
2016,07,15,08,01,13.60
2016,07,15,08,02,13.60
2016,07,15,08,03,13.70
2016,07,15,08,04,13.70
2016,07,15,08,05,13.80
2016,07,15,08,06,13.80
2016,07,15,08,07,13.80
2016,07,15,08,08,13.90
2016,07,15,08,09,13.90
2016,07,15,08,10,14.00
2016,07,15,08,11,14.00
2016,07,15,08,12,14.10
2016,07,15,08,13,14.10
2016,07,15,08,14,14.20
2016,07,15,08,15,14.20
2016,07,15,08,16,14.20
2016,07,15,08,17,14.30
2016,07,15,08,18,14.30
2016,07,15,08,19,14.40
2016,07,15,08,20,14.50
2016,07,15,08,21,14.50
2016,07,15,08,22,14.60
2016,07,15,08,23,14.70
2016,07,15,08,24,14.70
2016,07,15,08,25,14.80
2016,07,15,08,26,14.80
2016,07,15,08,27,14.90
2016,07,15,08,28,14.90
2016,07,15,08,29,15.00
2016,07,15,08,30,15.00
2016,07,15,08,31,15.10
2016,07,15,08,32,15.10
2016,07,15,08,33,15.20
2016,07,15,08,34,15.30
2016,07,15,08,35,15.40
2016,07,15,08,36,15.50
2016,07,15,08,37,15.50
2016,07,15,08,38,15.60
2016,07,15,08,39,15.70
2016,07,15,08,40,15.80
2016,07,15,08,41,15.90
2016,07,15,08,42,16.00
2016,07,15,08,43,16.10
2016,07,15,08,44,16.20
2016,07,15,08,45,16.30
2016,07,15,08,46,16.30
2016,07,15,08,47,16.40
2016,07,15,08,48,16.50
2016,07,15,08,49,16.50
2016,07,15,08,50,16.60
2016,07,15,08,51,16.60
2016,07,15,08,52,16.70
2016,07,15,08,53,16.70
2016,07,15,08,54,16.70
2016,07,15,08,55,16.70
2016,07,15,08,56,16.80
2016,07,15,08,57,16.70
2016,07,15,08,58,16.70
2016,07,15,08,59,16.70
2016,07,15,09,00,16.70
2016,07,15,09,01,16.70
2016,07,15,09,02,16.70
2016,07,15,09,03,16.70
2016,07,15,09,04,16.70
2016,07,15,09,05,16.70
2016,07,15,09,06,16.60
2016,07,15,09,07,16.60
2016,07,15,09,08,16.60
2016,07,15,09,09,16.60
2016,07,15,09,10,16.70
2016,07,15,09,11,16.70
2016,07,15,09,12,16.70
2016,07,15,09,13,16.80
2016,07,15,09,14,16.80
2016,07,15,09,15,16.90
2016,07,15,09,16,16.90
2016,07,15,09,17,17.00
2016,07,15,09,18,17.10
2016,07,15,09,19,17.10
2016,07,15,09,20,17.10
2016,07,15,09,21,17.20
2016,07,15,09,22,17.30
2016,07,15,09,23,17.40
2016,07,15,09,24,17.40
2016,07,15,09,25,17.40
2016,07,15,09,26,17.50
2016,07,15,09,27,17.50
2016,07,15,09,28,17.60
2016,07,15,09,29,17.60
2016,07,15,09,30,17.60
2016,07,15,09,31,17.60
2016,07,15,09,32,17.60
2016,07,15,09,33,17.60
2016,07,15,09,34,17.60
2016,07,15,09,35,17.50
2016,07,15,09,36,17.60
2016,07,15,09,37,17.60
2016,07,15,09,38,17.60
2016,07,15,09,39,17.60
2016,07,15,09,40,17.60
2016,07,15,09,41,17.70
2016,07,15,09,42,17.70
2016,07,15,09,43,17.70
2016,07,15,09,44,17.80
2016,07,15,09,45,17.90
2016,07,15,09,46,17.90
2016,07,15,09,47,18.00
2016,07,15,09,48,18.00
2016,07,15,09,49,18.10
2016,07,15,09,50,18.10
2016,07,15,09,51,18.20
2016,07,15,09,52,18.20
2016,07,15,09,53,18.20
2016,07,15,09,54,18.20
2016,07,15,09,55,18.20
2016,07,15,09,56,18.20
2016,07,15,09,57,18.20
2016,07,15,09,58,18.20
2016,07,15,09,59,18.20
2016,07,15,10,00,18.10
2016,07,15,10,01,18.10
2016,07,15,10,02,18.10
2016,07,15,10,03,18.20
2016,07,15,10,04,18.20
2016,07,15,10,05,18.20
2016,07,15,10,06,18.20
2016,07,15,10,07,18.30
2016,07,15,10,08,18.30
2016,07,15,10,09,18.30
2016,07,15,10,10,18.40
2016,07,15,10,11,18.40
2016,07,15,10,12,18.40
2016,07,15,10,13,18.40
2016,07,15,10,14,18.50
2016,07,15,10,15,18.50
2016,07,15,10,16,18.60
2016,07,15,10,17,18.60
2016,07,15,10,18,18.60
2016,07,15,10,19,18.60
2016,07,15,10,20,18.60
2016,07,15,10,21,18.70
2016,07,15,10,22,18.70
2016,07,15,10,23,18.70
2016,07,15,10,24,18.70
2016,07,15,10,25,18.60
2016,07,15,10,26,18.60
2016,07,15,10,27,18.60
2016,07,15,10,28,18.60
2016,07,15,10,29,18.50
2016,07,15,10,30,18.40
2016,07,15,10,31,18.30
2016,07,15,10,32,18.30
2016,07,15,10,33,18.20
2016,07,15,10,34,18.20
2016,07,15,10,35,18.20
2016,07,15,10,36,18.20
2016,07,15,10,37,18.20
2016,07,15,10,38,18.30
2016,07,15,10,39,18.30
2016,07,15,10,40,18.40
2016,07,15,10,41,18.40
2016,07,15,10,42,18.50
2016,07,15,10,43,18.50
2016,07,15,10,44,18.50
2016,07,15,10,45,18.40
2016,07,15,10,46,18.40
2016,07,15,10,47,18.40
2016,07,15,10,48,18.40
2016,07,15,10,49,18.40
2016,07,15,10,50,18.40
2016,07,15,10,51,18.40
2016,07,15,10,52,18.50
2016,07,15,10,53,18.50
2016,07,15,10,54,18.50
2016,07,15,10,55,18.50
2016,07,15,10,56,18.40
2016,07,15,10,57,18.40
2016,07,15,10,58,18.40
2016,07,15,10,59,18.50
2016,07,15,11,00,18.50
2016,07,15,11,01,18.60
2016,07,15,11,02,18.60
2016,07,15,11,03,18.60
2016,07,15,11,04,18.60
2016,07,15,11,05,18.60
2016,07,15,11,06,18.60
2016,07,15,11,07,18.60
2016,07,15,11,08,18.60
2016,07,15,11,09,18.60
2016,07,15,11,10,18.60
2016,07,15,11,11,18.60
2016,07,15,11,12,18.70
2016,07,15,11,13,18.70
2016,07,15,11,14,18.70
2016,07,15,11,15,18.80
2016,07,15,11,16,18.80
2016,07,15,11,17,18.80
2016,07,15,11,18,18.90
2016,07,15,11,19,18.90
2016,07,15,11,20,19.00
2016,07,15,11,21,18.90
2016,07,15,11,22,18.90
2016,07,15,11,23,18.80
2016,07,15,11,24,18.80
2016,07,15,11,25,18.80
2016,07,15,11,26,18.80
2016,07,15,11,27,18.80
2016,07,15,11,28,18.90
2016,07,15,11,29,19.00
2016,07,15,11,30,19.00
2016,07,15,11,31,19.10
2016,07,15,11,32,19.10
2016,07,15,11,33,19.10
2016,07,15,11,34,19.10
2016,07,15,11,35,19.10
2016,07,15,11,36,19.10
2016,07,15,11,37,19.20
2016,07,15,11,38,19.20
2016,07,15,11,39,19.20
2016,07,15,11,40,19.20
2016,07,15,11,41,19.20
2016,07,15,11,42,19.10
2016,07,15,11,43,19.10
2016,07,15,11,44,19.10
2016,07,15,11,45,19.10
2016,07,15,11,46,19.10
2016,07,15,11,47,19.00
2016,07,15,11,48,19.00
2016,07,15,11,49,18.90
2016,07,15,11,50,18.90
2016,07,15,11,51,18.80
2016,07,15,11,52,18.80
2016,07,15,11,53,18.80
2016,07,15,11,54,18.80
2016,07,15,11,55,18.80
2016,07,15,11,56,18.80
2016,07,15,11,57,18.80
2016,07,15,11,58,18.70
2016,07,15,11,59,18.70
2016,07,15,12,00,18.60
2016,07,15,12,01,18.60
2016,07,15,12,02,18.60
2016,07,15,12,03,18.60
2016,07,15,12,04,18.70
2016,07,15,12,05,18.70
2016,07,15,12,06,18.70
2016,07,15,12,07,18.80
2016,07,15,12,08,18.80
2016,07,15,12,09,18.80
2016,07,15,12,10,18.80
2016,07,15,12,11,18.80
2016,07,15,12,12,18.80
2016,07,15,12,13,18.80
2016,07,15,12,14,18.80
2016,07,15,12,15,18.80
2016,07,15,12,16,18.80
2016,07,15,12,17,18.80
2016,07,15,12,18,18.70
2016,07,15,12,19,18.70
2016,07,15,12,20,18.60
2016,07,15,12,21,18.60
2016,07,15,12,22,18.60
2016,07,15,12,23,18.60
2016,07,15,12,24,18.50
2016,07,15,12,25,18.50
2016,07,15,12,26,18.60
2016,07,15,12,27,18.60
2016,07,15,12,28,18.70
2016,07,15,12,29,18.70
2016,07,15,12,30,18.80
2016,07,15,12,31,18.80
2016,07,15,12,32,18.80
2016,07,15,12,33,18.90
2016,07,15,12,34,18.90
2016,07,15,12,35,18.90
2016,07,15,12,36,19.00
2016,07,15,12,37,19.00
2016,07,15,12,38,19.00
2016,07,15,12,39,19.00
2016,07,15,12,40,19.00
2016,07,15,12,41,18.90
2016,07,15,12,42,18.90
2016,07,15,12,43,19.00
2016,07,15,12,44,19.00
2016,07,15,12,45,19.00
2016,07,15,12,46,19.10
2016,07,15,12,47,19.10
2016,07,15,12,48,19.10
2016,07,15,12,49,19.10
2016,07,15,12,50,19.10
2016,07,15,12,51,19.10
2016,07,15,12,52,19.10
2016,07,15,12,53,19.10
2016,07,15,12,54,19.10
2016,07,15,12,55,19.10
2016,07,15,12,56,19.10
2016,07,15,12,57,19.00
2016,07,15,12,58,19.00
2016,07,15,12,59,19.00
2016,07,15,13,00,18.90
2016,07,15,13,01,18.90
2016,07,15,13,02,18.90
2016,07,15,13,03,18.90
2016,07,15,13,04,18.90
2016,07,15,13,05,19.00
2016,07,15,13,06,19.00
2016,07,15,13,07,19.10
2016,07,15,13,08,19.10
2016,07,15,13,09,19.10
2016,07,15,13,10,19.20
2016,07,15,13,11,19.20
2016,07,15,13,12,19.20
2016,07,15,13,13,19.10
2016,07,15,13,14,19.00
2016,07,15,13,15,19.00
2016,07,15,13,16,19.00
2016,07,15,13,17,19.00
2016,07,15,13,18,18.90
2016,07,15,13,19,19.00
2016,07,15,13,20,19.00
2016,07,15,13,21,19.10
2016,07,15,13,22,19.10
2016,07,15,13,23,19.20
2016,07,15,13,24,19.20
2016,07,15,13,25,19.30
2016,07,15,13,26,19.30
2016,07,15,13,27,19.30
2016,07,15,13,28,19.30
2016,07,15,13,29,19.40
2016,07,15,13,30,19.40
2016,07,15,13,31,19.40
2016,07,15,13,32,19.40
2016,07,15,13,33,19.40
2016,07,15,13,34,19.40
2016,07,15,13,35,19.40
2016,07,15,13,36,19.40
2016,07,15,13,37,19.30
2016,07,15,13,38,19.30
2016,07,15,13,39,19.20
2016,07,15,13,40,19.20
2016,07,15,13,41,19.20
2016,07,15,13,42,19.20
2016,07,15,13,43,19.20
2016,07,15,13,44,19.20
2016,07,15,13,45,19.30
2016,07,15,13,46,19.30
2016,07,15,13,47,19.30
2016,07,15,13,48,19.30
2016,07,15,13,49,19.40
2016,07,15,13,50,19.40
2016,07,15,13,51,19.40
2016,07,15,13,52,19.40
2016,07,15,13,53,19.50
2016,07,15,13,54,19.50
2016,07,15,13,55,19.50
2016,07,15,13,56,19.40
2016,07,15,13,57,19.30
2016,07,15,13,58,19.30
2016,07,15,13,59,19.30
2016,07,15,14,00,19.30
2016,07,15,14,01,19.40
2016,07,15,14,02,19.40
2016,07,15,14,03,19.50
2016,07,15,14,04,19.50
2016,07,15,14,05,19.60
2016,07,15,14,06,19.60
2016,07,15,14,07,19.60
2016,07,15,14,08,19.60
2016,07,15,14,09,19.60
2016,07,15,14,10,19.60
2016,07,15,14,11,19.60
2016,07,15,14,12,19.70
2016,07,15,14,13,19.70
2016,07,15,14,14,19.70
2016,07,15,14,15,19.80
2016,07,15,14,16,19.80
2016,07,15,14,17,19.90
2016,07,15,14,18,19.90
2016,07,15,14,19,19.80
2016,07,15,14,20,19.80
2016,07,15,14,21,19.80
2016,07,15,14,22,19.80
2016,07,15,14,23,19.80
2016,07,15,14,24,19.80
2016,07,15,14,25,19.80
2016,07,15,14,26,19.80
2016,07,15,14,27,19.80
2016,07,15,14,28,19.80
2016,07,15,14,29,19.80
2016,07,15,14,30,19.80
2016,07,15,14,31,19.80
2016,07,15,14,32,19.70
2016,07,15,14,33,19.70
2016,07,15,14,34,19.60
2016,07,15,14,35,19.60
2016,07,15,14,36,19.60
2016,07,15,14,37,19.60
2016,07,15,14,38,19.60
2016,07,15,14,39,19.60
2016,07,15,14,40,19.60
2016,07,15,14,41,19.60
2016,07,15,14,42,19.60
2016,07,15,14,43,19.60
2016,07,15,14,44,19.60
2016,07,15,14,45,19.70
2016,07,15,14,46,19.70
2016,07,15,14,47,19.70
2016,07,15,14,48,19.80
2016,07,15,14,49,19.80
2016,07,15,14,50,19.90
2016,07,15,14,51,20.00
2016,07,15,14,52,20.00
2016,07,15,14,53,20.10
2016,07,15,14,54,20.10
2016,07,15,14,55,20.20
2016,07,15,14,56,20.20
2016,07,15,14,57,20.20
2016,07,15,14,58,20.20
2016,07,15,14,59,20.20
2016,07,15,15,00,20.30
2016,07,15,15,01,20.30
2016,07,15,15,02,20.30
2016,07,15,15,03,20.30
2016,07,15,15,04,20.30
2016,07,15,15,05,20.20
2016,07,15,15,06,20.20
2016,07,15,15,07,20.20
2016,07,15,15,08,20.30
2016,07,15,15,09,20.30
2016,07,15,15,10,20.30
2016,07,15,15,11,20.40
2016,07,15,15,12,20.40
2016,07,15,15,13,20.40
2016,07,15,15,14,20.40
2016,07,15,15,15,20.40
2016,07,15,15,16,20.40
2016,07,15,15,17,20.50
2016,07,15,15,18,20.50
2016,07,15,15,19,20.50
2016,07,15,15,20,20.50
2016,07,15,15,21,20.50
2016,07,15,15,22,20.40
2016,07,15,15,23,20.30
2016,07,15,15,24,20.30
2016,07,15,15,25,20.30
2016,07,15,15,26,20.30
2016,07,15,15,27,20.30
2016,07,15,15,28,20.30
2016,07,15,15,29,20.40
2016,07,15,15,30,20.40
2016,07,15,15,31,20.50
2016,07,15,15,32,20.50
2016,07,15,15,33,20.60
2016,07,15,15,34,20.60
2016,07,15,15,35,20.60
2016,07,15,15,36,20.60
2016,07,15,15,37,20.60
2016,07,15,15,38,20.50
2016,07,15,15,39,20.50
2016,07,15,15,40,20.50
2016,07,15,15,41,20.50
2016,07,15,15,42,20.60
2016,07,15,15,43,20.60
2016,07,15,15,44,20.70
2016,07,15,15,45,20.70
2016,07,15,15,46,20.80
2016,07,15,15,47,20.80
2016,07,15,15,48,20.80
2016,07,15,15,49,20.80
2016,07,15,15,50,20.90
2016,07,15,15,51,20.90
2016,07,15,15,52,20.90
2016,07,15,15,53,21.00
2016,07,15,15,54,21.10
2016,07,15,15,55,21.10
2016,07,15,15,56,21.10
2016,07,15,15,57,21.10
2016,07,15,15,58,21.10
2016,07,15,15,59,21.00
2016,07,15,16,00,21.00
2016,07,15,16,01,21.00
2016,07,15,16,02,21.00
2016,07,15,16,03,21.00
2016,07,15,16,04,21.00
2016,07,15,16,05,21.00
2016,07,15,16,06,21.00
2016,07,15,16,07,21.10
2016,07,15,16,08,21.10
2016,07,15,16,09,21.20
2016,07,15,16,10,21.20
2016,07,15,16,11,21.30
2016,07,15,16,12,21.30
2016,07,15,16,13,21.40
2016,07,15,16,14,21.40
2016,07,15,16,15,21.40
2016,07,15,16,16,21.40
2016,07,15,16,17,21.40
2016,07,15,16,18,21.40
2016,07,15,16,19,21.40
2016,07,15,16,20,21.40
2016,07,15,16,21,21.40
2016,07,15,16,22,21.50
2016,07,15,16,23,21.50
2016,07,15,16,24,21.50
2016,07,15,16,25,21.50
2016,07,15,16,26,21.50
2016,07,15,16,27,21.50
2016,07,15,16,28,21.50
2016,07,15,16,29,21.50
2016,07,15,16,30,21.40
2016,07,15,16,31,21.40
2016,07,15,16,32,21.30
2016,07,15,16,33,21.30
2016,07,15,16,34,21.30
2016,07,15,16,35,21.30
2016,07,15,16,36,21.30
2016,07,15,16,37,21.30
2016,07,15,16,38,21.30
2016,07,15,16,39,21.30
2016,07,15,16,40,21.30
2016,07,15,16,41,21.30
2016,07,15,16,42,21.30
2016,07,15,16,43,21.30
2016,07,15,16,44,21.20
2016,07,15,16,45,21.20
2016,07,15,16,46,21.20
2016,07,15,16,47,21.20
2016,07,15,16,48,21.20
2016,07,15,16,49,21.20
2016,07,15,16,50,21.20
2016,07,15,16,51,21.20
2016,07,15,16,52,21.20
2016,07,15,16,53,21.20
2016,07,15,16,54,21.20
2016,07,15,16,55,21.20
2016,07,15,16,56,21.20
2016,07,15,16,57,21.20
2016,07,15,16,58,21.20
2016,07,15,16,59,21.20
2016,07,15,17,00,21.30
2016,07,15,17,01,21.30
2016,07,15,17,02,21.30
2016,07,15,17,03,21.30
2016,07,15,17,04,21.40
2016,07,15,17,05,21.40
2016,07,15,17,06,21.40
2016,07,15,17,07,21.40
2016,07,15,17,08,21.40
2016,07,15,17,09,21.40
2016,07,15,17,10,21.40
2016,07,15,17,11,21.40
2016,07,15,17,12,21.40
2016,07,15,17,13,21.40
2016,07,15,17,14,21.40
2016,07,15,17,15,21.30
2016,07,15,17,16,21.30
2016,07,15,17,17,21.30
2016,07,15,17,18,21.20
2016,07,15,17,19,21.20